This is the latest recevied weather packets stored in our database for station/object OE3APM-13. If no packets are shown the sender has not sent any weather packets the latest 10 day(s).
| Time | Temp. | Humidity | Pressure | Rain* | Wind** | Luminosity | Snow |
|---|---|---|---|---|---|---|---|
| 1788609681 | 21.67° C | 61% | 1021.1 hPa | 0 mm | - | 679 W/m² | - |
| 1788609381 | 21.11° C | 62% | 1021.1 hPa | 0 mm | - | 819 W/m² | - |
| 1788609072 | 21.11° C | 62% | 1021.1 hPa | 0 mm | - | 591 W/m² | - |
| 1788608767 | 20.56° C | 64% | 1021.2 hPa | 0 mm | - | 840 W/m² | - |
| 1788608467 | 20.56° C | 65% | 1021.1 hPa | 0 mm | - | 285 W/m² | - |
| 1788608169 | 20° C | 66% | 1021.1 hPa | 0 mm | - | 206 W/m² | - |
| 1788607866 | 20° C | 66% | 1021.3 hPa | 0 mm | - | 202 W/m² | - |
| 1788607566 | 20° C | 64% | 1021.3 hPa | 0 mm | - | 135 W/m² | - |
| 1788607267 | 20.56° C | 64% | 1021.3 hPa | 0 mm | - | 109 W/m² | - |
| 1788606967 | 20.56° C | 64% | 1021.3 hPa | 0 mm | - | 977 W/m² | - |
| 1788606668 | 20.56° C | 66% | 1021.3 hPa | 0 mm | - | 826 W/m² | - |
| 1788606365 | 20° C | 64% | 1021.4 hPa | 0 mm | - | 229 W/m² | - |
| 1788606079 | 20.56° C | 65% | 1021.3 hPa | 0 mm | - | 355 W/m² | - |
| 1788605765 | 20.56° C | 62% | 1021.3 hPa | 0 mm | - | 279 W/m² | - |
| 1788605466 | 20.56° C | 63% | 1021.4 hPa | 0 mm | - | 287 W/m² | - |
| 1788605163 | 20° C | 66% | 1021.4 hPa | 0 mm | - | 947 W/m² | - |
| 1788604864 | 20° C | 64% | 1021.3 hPa | 0 mm | - | 229 W/m² | - |
| 1788604562 | 20.56° C | 66% | 1021.4 hPa | 0 mm | - | 265 W/m² | - |
| 1788604264 | 20° C | 66% | 1021.4 hPa | 0 mm | - | 691 W/m² | - |
| 1788603959 | 20° C | 68% | 1021.3 hPa | 0 mm | - | 705 W/m² | - |
| 1788603658 | 19.44° C | 68% | 1021.3 hPa | 0 mm | - | 666 W/m² | - |
| 1788603349 | 19.44° C | 66% | 1021.3 hPa | 0 mm | - | 555 W/m² | - |
| 1788603049 | 19.44° C | 67% | 1021.4 hPa | 0 mm | - | 202 W/m² | - |
| 1788602732 | 19.44° C | 69% | 1021.4 hPa | 0 mm | - | 142 W/m² | - |
| 1788602427 | 19.44° C | 70% | 1021.4 hPa | 0 mm | - | 216 W/m² | - |
* Rain latest hour (hover to see other rain measurements)
** Current wind speed in m/s (hover to see current wind gust speed)